Regional Weather Roundup
Issued by NWS Grand Forks, ND

Home | Current Version | Previous Version | Text Only | Print | Product List | Glossary Off
Versions: 1 2 3 4 5 6 7 8 9 10 11 12 13 14 15 16 17 18 19 20 21 22 23 24 25 26 27 28 29 30 31 32 33 34 35 36 37 38 39 40 41 42 43 44 45 46 47 48 49 50

000
ASUS43 KFGF 301710
RWRFGF
PRAIRIE TO PINES  WEATHER ROUNDUP
NATIONAL WEATHER SERVICE EASTERN NORTH DAKOTA/GRAND FORKS ND
1200 PM CDT SAT JUL 30 2016

 **SATELLITE DATA USED TO AUGMENT SKY COVER AT AUTOMATED STATIONS**
 *****  WEATHER ACROSS EASTERN NORTH DAKOTA  *****

CITY           SKY/WX    TMP DP  RH WIND       PRES   REMARKS
GRAND FORKS    PTSUNNY   79  62  56 S17       29.93F
GRAND FRKS AFB SUNNY     78  65  63 S15       29.93F
DEVILS LAKE    CLOUDY    75  64  68 S7        29.93S
FARGO          MOSUNNY   78  62  57 S9        29.97F
WAHPETON ARPT  SUNNY     77  55  47 SE9       30.00S
$$

 ***** WEATHER ACROSS CENTRAL AND WESTERN NORTH DAKOTA  *****

CITY           SKY/WX    TMP DP  RH WIND       PRES   REMARKS
BISMARCK       PTSUNNY   76  65  68 S17       29.89F
MINOT          SUNNY     83  58  42 CALM      29.87F
JAMESTOWN      CLOUDY    70  62  76 S9        29.94F
MINOT AFB      SUNNY     78  61  55 VRB1      29.86F
GARRISON         N/A     75  64  68 CALM      29.88F
WILLISTON      SUNNY     81  55  40 S7        29.87F
DICKINSON      SUNNY     78  54  43 VRB3      29.88F
HETTINGER      MOSUNNY   83  56  39 VRB5      29.91F
$$

 *****  OTHER AIRPORT OBSERVATIONS IN OUR AREA  *****

CITY           SKY/WX    TMP DP  RH WIND       PRES   REMARKS
WALHALLA       NOT AVBL
GRAFTON AIRPOR FAIR      77  66  69 S14       29.94S
VALLEY CITY AR PTSUNNY   75  64  69 S13       29.99S
CANDO          NOT AVBL
CAVALIER APRT  FAIR      75  64  69 S12       29.91S
GWINNER        FAIR      75  64  69 S12       29.98F
SHEYENNE NWR     N/A     80  61  52 SW8       29.95
ROLLA            N/A     73  64  73 SW5       29.93S
 ***** THE ABOVE OBSERVATIONS ARE NON NWS ARE NOT QUALITY
       CONTROLLED AND MAY MIS-REPORT RAIN FOR SNOW...
$$

  *****  WEATHER ACROSS NORTHERN MINNESOTA  *****

CITY           SKY/WX    TMP DP  RH WIND       PRES   REMARKS
FLAG ISLAND    SUNNY     73  64  73 S8        29.97S
WARROAD        NOT AVBL
ROSEAU         CLOUDY    75  66  73 S7        29.97S
HALLOCK        SUNNY     77  63  61 S16G22    29.92S
THF RVR FALLS  CLOUDY    72  62  71 S13       30.00S
BAUDETTE       PTSUNNY   76  62  62 S9        29.99S
WASKISH        MOSUNNY   75  63  64 SW12      30.02S
CROOKSTON      SUNNY     75  64  69 S12G18    29.98S
STEPHEN NDAWN    N/A     75  64  69 S12         N/A
GREENBUSH NDAW   N/A     79  61  53 S13         N/A
$$
  *****  WEATHER ACROSS CENTRAL AND WEST MINNESOTA  *****

CITY           SKY/WX    TMP DP  RH WIND       PRES   REMARKS
FOSSTON        CLOUDY    70  66  88 SE7       30.02S
BEMIDJI        CLOUDY    68  61  77 W5        30.05R
PARK RAPIDS    CLOUDY    75  57  53 S7        30.04S
ELBOW LAKE     FAIR      74  61  62 S12       30.04S
WADENA         PTSUNNY   73  55  53 SE8       30.04R
DETROIT LAKES  MOSUNNY   72  61  68 S5        30.04R
MOORHEAD       MOSUNNY   75  61  60 S7        29.99S
FERGUS FALLS   PTSUNNY   73  61  64 S12       30.03S
MORRIS MN      SUNNY     79  57  47 S5        30.02S
STAPLES        SUNNY     73  55  53 SE7       30.05S
$$
  *****  WEATHER ELSEWHERE ACROSS MINNESOTA  *****

CITY           SKY/WX    TMP DP  RH WIND       PRES   REMARKS
DULUTH         MOSUNNY   70  58  65 SE7       30.07S
INTRNTL FALLS  MOSUNNY   75  59  57 SE7       30.02F
ELY            MOSUNNY   73  54  49 S8        30.07S
CLOQUET        SUNNY     72  57  60 S5        30.07S
WHEATON        NOT AVBL
BRAINERD       SUNNY     75  55  49 VRB5      30.05S
HIBBING        SUNNY     71  49  45 VRB3      30.06S
ALEXANDRIA     SUNNY     74  55  51 SE10      30.06S
SAINT CLOUD    MOSUNNY   75  61  61 E5        30.03F
MINNEAPOLIS    CLOUDY    74  64  71 SE5       30.04F
$$

  *****  WEATHER ACROSS SOUTH DAKOTA  *****

CITY           SKY/WX    TMP DP  RH WIND       PRES   REMARKS
SIOUX FALLS    MOSUNNY   76  57  51 VRB3      30.02F
BROOKINGS      MOSUNNY   75  59  57 VRB7      30.02F
WATERTOWN      SUNNY     76  58  53 S12       30.01F
HURON          SUNNY     79  58  48 SE13G22   29.96F
SISSETON         N/A     78  55  44 S14       29.98F
ABERDEEN       SUNNY     79  59  50 S15       29.96F
MITCHELL       MOSUNNY   80  62  54 SE15      29.98S
PIERRE         SUNNY     84  60  44 S18       29.89F
MOBRIDGE       SUNNY     84  61  45 S18G25    29.89F
RAPID CITY     SUNNY     83  58  42 S14G21    29.93F
$$

  *****  SOME WEATHER IN NEARBY STATES *****

CITY           SKY/WX    TMP DP  RH WIND       PRES   REMARKS
GLASGOW MT     SUNNY     80  57  45 SE12      29.82F
GREAT FALLS MT SUNNY     86  47  25 SW14      29.81F
CHEYENNE WY    SUNNY     74  60  61 VRB5      30.12S
SCOTTSBLUFF NE SUNNY     77  64  64 E8        30.00F
OMAHA NE       CLOUDY    74  64  71 E6        30.03F
DES MOINES IA  CLOUDY    76  64  66 N5        30.03S
DAVENPORT IA   CLOUDY    74  67  78 NE3       30.01R
CHICAGO IL     CLOUDY    72  65  78 NE9       30.00R
EAU CLAIRE WI  SUNNY     77  56  48 SE5       30.04S
LA CROSSE WI   PTSUNNY   77  62  59 SE6       30.03S
$$

  *****  SOME NATIONAL WEATHER *****

CITY           SKY/WX    TMP DP  RH WIND       PRES   REMARKS
LA GUARDIA NY  PTSUNNY   80  69  69 NE9       30.01S
RALEIGH NC     PTSUNNY   91  73  55 SW14      29.97F HX  99
ATLANTA GA     PTSUNNY   88  73  61 VRB3      30.06F HX  95
NEW ORLEANS LA MOSUNNY   90  76  63 N8        30.05F HX 101
OKLAHOMA CITY  CLOUDY    84  71  65 VRB5      29.98F
ALBUQUERQUE NM MOSUNNY   78  54  43 VRB7      30.18F
SALT LAKE CITY PTSUNNY   91  46  21 S12       29.96S
LOS ANGELES CA MOSUNNY   78  65  63 W9        29.88S
BOISE ID       SUNNY     86  42  21 W9        29.85S HAZE
SEATTLE WA     CLOUDY    60  54  80 SW12      30.00R
$$

*** WEATHER ACROSS MANITOBA...SASKATCHEWAN AND ONTARIO ***
                ***ONTARIO***

CITY           SKY/WX    TMP DP  RH WIND       PRES   REMARKS
GERALDTON      MOSUNNY   75  50  41 SE10      30.08F
THUNDER BAY    PTSUNNY   73  57  56 E12       30.07F
SIOUX LOOKOUT  PTSUNNY   77  57  50 SW10      30.01F
TORONTO        MOSUNNY   75  55  50 E12       30.05F
BIG TROUT LK   MOSUNNY   73  63  68 S7        29.93S
PICKLE LAKE    MOSUNNY   81  50  34 SW9G18    30.00S
DRYDEN         SUNNY     77  55  47 S15       30.01F
KENORA         MOSUNNY   75  55  50 SW13G20   29.99S
$$
                *** MANITOBA***

CITY           SKY/WX    TMP DP  RH WIND       PRES   REMARKS
BRANDON        MOSUNNY   79  63  57 S7        29.88S
DAUPHIN        MOSUNNY   79  63  57 W7        29.83F
ISLAND LAKE    PTSUNNY   77  63  61 SW7       29.87S
PILOT MOUND      N/A     77  64  65 SE8         N/A
THE PAS        MOSUNNY   77  63  61 VRB2      29.78S
THOMPSON       PTSUNNY   68  64  88 SW5       29.79S
WINNIPEG       MOSUNNY   77  64  65 S12G17    29.91S
LYNN LAKE      CLOUDY    64  59  82 MISG      29.80S
CHURCHILL      CLOUDY    55  48  76 SE12      29.94S
GILLAM         CLOUDY    57  55  94 E6        29.83F
$$
                ***SASKATCHEWAN***

CITY           SKY/WX    TMP DP  RH WIND       PRES   REMARKS
ESTEVAN        MOSUNNY   79  55  44 S6        29.87F
KINDERSLEY     PTSUNNY   73  64  73 S9        29.78R
LLOYDMINSTER   LGT RAIN  63  59  88 NE5       29.77R
PRINCE ALBERT  MOSUNNY   79  63  57 S7        29.76F
REGINA         MOSUNNY   77  63  61 S8        29.83F
YORKTON        SUNNY     75  59  57 VRB6      29.84S
N. BATTLEFORD  PTSUNNY   73  61  64 S5        29.77F
LA RONGE       NOT AVBL
SASKATOON      PTSUNNY   77  59  53 SW12      29.79F
SWIFT CURRENT  SUNNY     79  61  53 SE14G20   29.79F
$$
NOTE: THESE ARE AUTOMATED STATIONS WITH LIMITED QUALITY CONTROL
      "FAIR" INDICATES FEW OR NO CLOUDS BELOW 12,000 FEET WITH NO
      SIGNIFICANT WEATHER AND/OR OBSTRUCTIONS TO VISIBILITY.
      SKY/WX - SKY CONDITION AND SIGNIFICANT WEATHER.
      TMP - AIR TEMPERATURE.    DP   - DEWPOINT TEMPERATURE.
      RH  - RELATIVE HUMIDITY.  PRES - PRESSURE.
      HX  - HEAT INDEX.         WCI  - WIND CHILL INDEX.
$



USA.gov is the U.S. government's official web portal to all federal, state and local government web resources and services.